Location: Ahausen
(50.4985°N, 8.2722°E)
Time: 01:53:37
(UTC+00:00)

ITUPSAT 1 - Pass Details

Date: 04 July 2022
Orbit: 701 x 711 km, 98.6° (Epoch: 16 August)

Event Time Altitude Azimuth Distance (km) Brightness Sun altitude
Rises 21:24:10 0° 5° (N) 3,115 ? -11.5°
Reaches altitude 10° 21:26:51 10° 351° (N) 2,193 ? -11.7°
Maximum altitude 21:30:30 22° 301° (WNW) 1,522 ? -12.0°
Drops below altitude 10° 21:34:09 10° 251° (WSW) 2,186 ? -12.2°
Sets 21:36:49 0° 237° (WSW) 3,102 ? -12.4°
